Location: Berlin
(52.5170°N, 13.4000°E)
Time: 22:39:24
(UTC+02:00)

ISS - Pass Details

Date: 19 July 2018
Orbit: 402 x 408 km, 51.6° (Epoch: 22 July)

Event Time Altitude Azimuth Distance (km) Brightness Sun altitude
Exits shadow 01:30:31 - 261° (W) 1,917 -0.5 -16.5°
Reaches altitude 10° 01:31:37 10° 260° (W) 1,467 -1.2 -16.5°
Maximum altitude 01:34:54 76° 175° (S) 425 -4.0 -16.4°
Drops below altitude 10° 01:38:12 10° 90° (E) 1,472 -0.9 -16.4°
Sets 01:40:17 0° 88° (E) 2,334 0.1 -16.3°
